Location: Winthrop
(48.4780°N, 120.1850°W)
Time: 04:47:36
(UTC-08:00)

Vanguard 1 Rocket - Pass Details

Date: 29 November 2023
Orbit: 654 x 4218 km, 34.3° (Epoch: 24 February)

Event Time Altitude Azimuth Distance (km) Brightness Sun altitude
Rises 08:22:50 0° 249° (WSW) 6,652 11.5 6.3°
Reaches altitude 10° 08:28:30 10° 242° (WSW) 5,004 11.0 6.9°
Maximum altitude 08:39:07 33° 186° (S) 2,344 10.1 8.2°
Drops below altitude 10° 08:45:21 10° 124° (SE) 2,897 12.1 8.9°
Sets 08:47:43 0° 114° (ESE) 3,581 11.8 9.2°
